Tracking 32936 objects as of 17-Jan-2026
HD Live streaming from Space Station
objects crossing your sky now

DMSP 5D-2 F13 DEB

Track DMSP 5D-2 F13 DEB now!
10-day predictions


NORAD ID: 40565
Int'l Code: 1995-015DY
Perigee: 824.6 km
Apogee: 1,068.9 km
Inclination: 98.8 °
Period: 103.8 minutes
Semi major axis: 7317 km
RCS: Unknown
Launch date: March 24, 1995
Source: United States (US)
Launch site: AIR FORCE WESTERN TEST RANGE (AFWTR)

Note: This is SATELLITE DEBRIS
Your satellite tracking list
Your tracking list is empty




NASA's NSSDC Master Catalog

Two Line Element Set (TLE):
1 40565U 95015DY  26016.29520806  .00001585  00000-0  12486-2 0  9999
2 40565  98.7872 136.7230 0166891 311.9040  46.7984 13.86868506543038
Source of the keplerian elements: AFSPC